Погода в Лиски

Погода в Лиски : погода сейчас, прогноз погоды и архив. Всё, что Вы хотите узнать о погоде в Лиски!

Поиск расширенной информации на нашем сайте:

Другие новости

Новости СМИ2

Главная страница сайта

Новости сайта

03.07.2017

Напоминаем, что на нашем специализированном сайте Метеоцентр.Азия вы можете получить высокодетализированные автоматические прогнозы погоды по пунктам России, СНГ и мира в авиационном формате (включающие направление и скорость ветра, видимость, явления погоды, количество и форму облачности, нижнюю и верхнюю границу облачности).


Погода в Лиски - сегодня

Время (UTC), дата Ветер
(°,м/с) 
Видим.   Явления Облачность Т
(°С)
Тd
(°С)
f(%) Тe
(°С)
Pmin
(гПа)
dP
(гПа)
Po
(мм)
O2
(г/м3)
Тmin Tmax R s Состояние
почвы
18 18.01.18 120 (ЮВ) 20000 м    9/9 800 м 
[Sc]
-5.4 -11.9 60 -7  1015.3  1.1  750  310           
21 18.01.18 110 (В) 20000 м    3/3 600 м 
[Sc]
-9.1 -15.3 61 -11  1015.4  -0.1  750  314           
00 19.01.18 120 (ЮВ) 20000 м    ясно 
-10.7 -15.1 70 -13  1016.2  0.7  751  316           
03 19.01.18 100 (В) 10 км    8/8 800 м 
[Sc]
-11 -13.8 80 -14  1015.9  -0.3  751  316  -11.2      равномерный
сухой снег
100% 
06 19.01.18 130 (ЮВ) 3{10}  20000 м    9/9 800 м 
[Sc]
-10.2 -13 80 -13  1015.2  -0.6  750  315           
09 19.01.18 130 (ЮВ) 4{13}  20000 м    4/3 600 м верхняя 
[Sc|Ci fib]
-8.4 -12.6 72 -12  1015.8  0.7  751  313           
12 19.01.18 150 (ЮВ) 20000 м    10/10 800 м 
[Sc]
-5.8 -10.6 69 -8  1015.8  0.1  751  310           
15 19.01.18 110 (В) 4{11}  20000 м    10/10 800 м 
[Sc]
-5 -8.6 76 -8  1014.6  -1.2  750  309    -4.7       
18 19.01.18 120 (ЮВ) 4{12}  20000 м    10/10 750 м 
[Sc]
-5.2 -7.7 83 -8  1013.4  -1.1  749  308           
21 19.01.18 150 (ЮВ) 4{11}  10 км  {снег}  10/10 630 м 
[Frnb|Ns]
-6.2 -8.5 84 -10  1013.5  0.1  749  310           
00 20.01.18 140 (ЮВ) 10 км  слаб. снег  10/10 500 м 
[Frnb|Ns]
-8 -9.4 90 -10  1014.4  0.7  750  312           
03 20.01.18 170 (Ю) 10 км  {снег}  10/10 500 м 
[Frnb|Ns]
-8.6 -10.5 86 -11  1014.3  -0.2  749  313  -8.8    равномерный
сухой снег
100% 
06 20.01.18 180 (Ю) 10 км  в посл. час снег  10/10 540 м 
[Frnb|Ns]
-7.6 -9.4 87 -10  1014.6  0.4  750  312           
09 20.01.18 210 (ЮЗ) 10 км    10/10 570 м 
[St]
-4 -5.2 91 -6  1015.1  0.7  750  307           
12 20.01.18 210 (ЮЗ) 20000 м    10/10 720 м 
[Sc]
-1.2 -3.2 86 -3  1014.9  -0.1  750  304           
15 20.01.18 180 (Ю) 20000 м    10/10 800 м 
[Sc]
-1.4 -3.1 88 -3  1015.7  0.8  751  304    -1  0.2     
18 20.01.18 160 (Ю) 10 км  слаб. снег  10/10 540 м 
[Frnb|Ns]
-2.5 -3.8 91 -5  1014.9  -0.8  750  306           
21 20.01.18 140 (ЮВ) 4000 м  слаб. снег  10/10 500 м 
[Frnb|Ns]
-2.7 -3.4 95 -4  1013.3  -1.6  749  305           
00 21.01.18 140 (ЮВ) 4000 м  слаб. снег  10/10 500 м 
[Frnb|Ns]
-2.8 -3.5 95 -4  1011.5  -1.8  748  305           
03 21.01.18 130 (ЮВ) 4000 м  слаб. снег  10/10 500 м 
[Frnb|Ns]
-2.1 -2.7 96 -2  1009.1  -2.3  746  303  -2.9    15  равномерный
сухой снег
100% 
06 21.01.18 150 (ЮВ) 4000 м  слаб. снег [диам. отлож. мокр. снега 1 мм]  10/10 500 м 
[Frnb|Ns]
+0.2 -0.6 94 -1  1007.4  -1.5  745  300           
09 21.01.18 150 (ЮВ) 4000 м  слаб. ливневой снег [диам. отлож. мокр. снега 9 мм]  10/10 540 м кучево-дожд. 
[Cb cap]
+0.2 -0.4 96 -1  1005.9  -1.5  744  299           
12 21.01.18 150 (ЮВ) 4000 м  слаб. ливневой снег [диам. отлож. мокр. снега 15 мм]  10/10 540 м кучево-дожд. 
[Cb cap]
+0 -0.6 96 -1  1003.9  -2  742  299           
15 21.01.18 тихо ()   4000 м  слаб. снег{ливн. осадки} [диам. отлож. мокр. снега 15 мм]  10/10 540 м 
[Frnb|Ns]
-2.7 -3.4 95 -3  1007.2  3.1  745  303    +0.2  16     
18 21.01.18 280 (З) 20000 м  {ливн. осадки, снег} [диам. отлож. мокр. снега 15 мм]  9/9 750 м 
[Sc]
-4 -4.8 94 -4  1011.2  3.9  747  306           
Время (UTC), дата Ветер
(°,м/с) 
Видим.   Явления Облачность Т
(°С)
Тd
(°С)
f(%) Тe
(°С)
Pmin
(гПа)
dP
(гПа)
Po
(мм)
O2
(г/м3)
Тmin Tmax R s Состояние
почвы

Для получения пояснительной информации подведите курсор к названию столбца.

ПОГОДА в Лиски - архив

Всё, что Вы хотите узнать о погоде в Лиски - удобно и подробно!

Выберите нужную дату (начиная с 1 января 2015* года) и нажмите кнопку "Найти".
Будут отображены архивные сводки погоды по пункту Лиски, начиная с указанной даты.


Отображать данные в формате CSV (для использования в таблицах Excel)


Внимание! Наш архив погоды предназначен исключительно для личного некоммерческого использования в познавательных целях. Если Вам необходимы официальные справки о состоянии погоды (для производственных, юридических, коммерческих и т.п. целей), обращайтесь в органы Росгидромета.

*Примечание: данная дата относится к архиву по метеостанциям СССР (Россия, СНГ, Балтия).
Архив по метеостанциям Зарубежной Европы и Азии (кроме Китая) хранится 10 дней, по другим регионам земного шара (Китай, Африка, Америка, Австралия, Океания) - 1 день.

Лиски - район местоположения метеостанции


Название, широта, долгота, высота метеостанции:
Лиски 51°ш. 39.5°д. 115 м над ур. моря [Российская Федерация]

Дополнительная информация

В oтличие oт бoльшинства пoгoдных сайтoв мы публикуем пoдрoбную метеoинфoрмацию в детальнoм прoфессиoнальнoм фoрмате.

Характеристики температуры и влажнoсти вoздуха измеряются на высoте 2 м в тени вдали oт зданий и деревьев.
Скoрoсть ветра измеряется на высoте 10 м (на урoвне рoста челoвека скoрoсть ветра ниже в 1.5-2 раза). Если метеoстанция нахoдится в гoрoде или в лесу, тo скoрoсть ветра занижена на 2-4 м/с пo сравнению с oткрытым местoм. Скoрoсть ветра над акватoриями крупных рек и oзёр, а также на вершинах хoлмoв на 2-5 м/с выше, чем в oбычных услoвиях.
Атмoсфернoе давление в разных тoчках местнoсти мoжет значительнo oтличаться oт давления на метеoстанции, в зависимoсти oт услoвий рельефа (при пoдъёме на 10 м давление пoнижается примернo на 1 мм рт.ст.).